DW0805 Weather Reports


time (UTC)temp
F
wind
direction
speed
knots
gust
knots
rain 1hr
in
rain 24hr
in
rain mn
in
humidity
%
barometer
mb
20260906164514 63 269 2.6 6.1 0.00 0.00 0.00 75 1022.0
20260906163514 63 306 5.2 7.0 0.00 0.00 0.00 75 1022.1
20260906162514 63 312 1.7 6.1 0.00 0.00 0.00 75 1022.0
20260906161514 63 273 5.2 7.0 0.00 0.00 0.00 73 1022.2
20260906155514 64 268 5.2 11.3 0.00 0.00 0.00 71 1022.0
20260906154514 64 267 5.2 11.3 0.00 0.00 0.00 70 1022.0
20260906152515 67 267 7.8 12.2 0.00 0.00 0.00 65 1022.0
20260906151515 67 294 4.3 13.9 0.00 0.00 0.00 67 1021.9
20260906150514 66 286 8.7 13.0 0.00 0.00 0.00 65 1021.9
20260906145514 66 266 7.8 13.9 0.00 0.00 0.00 66 1022.1
20260906143514 67 286 6.1 13.9 0.00 0.00 0.00 66 1022.0
20260906142514 66 247 7.8 13.9 0.00 0.00 0.00 67 1022.1
20260906140516 66 264 12.2 17.4 0.00 0.00 0.00 66 1022.0
20260906134515 65 246 14.8 20.0 0.00 0.00 0.00 69 1021.9
20260906132514 64 255 10.4 14.8 0.00 0.00 0.00 69 1021.9
20260906131514 65 279 8.7 14.8 0.00 0.00 0.00 68 1022.0
20260906130514 65 277 10.4 17.4 0.00 0.00 0.00 70 1022.0
20260906121515 65 242 12.2 19.1 0.00 0.00 0.00 70 1021.9
20260906115515 65 274 12.2 18.2 0.00 0.00 0.00 71 1021.8
20260906103515 64 298 7.8 14.8 0.00 0.00 0.00 74 1021.3
20260906102513 64 335 11.3 17.4 0.00 0.00 0.00 74 1021.2
20260906095513 63 273 10.4 17.4 0.00 0.00 0.00 75 1020.8
20260906094515 63 284 11.3 15.6 0.00 0.00 0.00 77 1020.7
20260906092514 62 298 8.7 15.6 0.00 0.00 0.00 77 1020.6
20260906091514 63 303 11.3 15.6 0.00 0.00 0.00 76 1020.4
20260906085514 63 285 11.3 15.6 0.00 0.00 0.00 76 1020.3
20260906084515 62 294 7.8 19.1 0.00 0.00 0.00 78 1020.2
20260906081514 61 297 10.4 13.9 0.00 0.00 0.00 79 1020.0
20260906075514 61 336 8.7 19.1 0.00 0.00 0.00 81 1019.8
20260906074515 60 281 10.4 14.8 0.00 0.00 0.00 81 1019.6
20260906073514 59 295 9.6 15.6 0.00 0.00 0.00 81 1019.6
20260906072514 59 291 8.7 17.4 0.00 0.00 0.00 82 1019.5
20260906071514 59 295 7.8 15.6 0.00 0.00 0.00 82 1019.4
20260906063515 59 303 12.2 20.0 0.00 0.00 0.00 82 1018.8
20260906062514 59 294 12.2 19.1 0.00 0.00 0.00 82 1018.7
20260906055514 58 290 8.7 19.1 0.00 0.00 0.00 83 1018.4
20260906053515 58 288 8.7 13.9 0.00 0.00 0.00 84 1018.1
20260906052514 58 308 10.4 17.4 0.00 0.00 0.00 84 1018.0
20260906050514 58 302 9.6 17.4 0.00 0.00 0.00 84 1017.8
20260906045514 58 292 10.4 20.0 0.00 0.00 0.00 83 1017.6
20260906043514 58 270 11.3 15.6 0.00 0.00 0.00 84 1017.4
20260906042514 58 302 13.0 18.2 0.00 0.00 0.00 84 1017.3
20260906033513 58 288 9.6 17.4 0.00 0.00 0.00 83 1016.3
20260906032514 58 302 10.4 14.8 0.00 0.00 0.00 84 1016.3
20260906031514 58 301 10.4 14.8 0.00 0.00 0.00 84 1016.1
20260906030515 58 291 7.0 17.4 0.00 0.00 0.00 84 1016.0
20260906022514 58 290 11.3 19.1 0.00 0.00 0.00 83 1015.6
20260906021516 58 314 10.4 18.2 0.00 0.00 0.00 84 1015.6
20260906012514 58 298 12.2 21.7 0.00 0.00 0.00 83 1015.1
20260906011515 58 285 13.0 18.2 0.00 0.00 0.00 83 1015.0
20260906005514 59 297 13.9 21.7 0.00 0.00 0.00 83 1014.8
20260905233515 59 319 10.4 20.9 0.00 0.00 0.00 82 1013.7
20260905232514 59 303 13.0 19.1 0.00 0.00 0.00 81 1013.7
20260905230516 59 300 13.9 20.0 0.00 0.00 0.00 81 1013.5
20260905224516 60 301 23.5 24.3 0.00 0.00 0.00 81 1013.3
20260905222514 60 300 15.6 21.7 0.00 0.00 0.00 81 1012.8
20260905221510 60 279 13.0 22.6 0.00 0.00 0.00 81 1012.7
20260905220514 60 289 11.3 21.7 0.00 0.00 0.00 80 1012.5
20260905215514 60 296 12.2 20.9 0.00 0.00 0.00 80 1012.3
20260905213514 60 276 12.2 26.1 0.00 0.00 0.00 79 1012.2
20260905211515 60 283 13.9 22.6 0.00 0.00 0.00 80 1011.9
20260905205515 60 286 14.8 22.6 0.00 0.00 0.00 80 1011.6
20260905202515 60 288 13.9 24.3 0.00 0.00 0.00 81 1011.3
20260905200515 60 296 13.9 24.3 0.00 0.00 0.00 78 1011.1
20260905195514 60 286 14.8 28.7 0.00 0.00 0.00 79 1010.9
20260905194516 60 281 19.1 24.3 0.00 0.00 0.00 79 1010.9
20260905193517 60 279 15.6 24.3 0.00 0.00 0.00 79 1010.7
20260905192515 60 293 15.6 30.4 0.00 0.00 0.00 79 1010.4
20260905191515 60 261 24.3 30.4 0.00 0.00 0.00 79 1010.4
20260905185515 60 260 16.5 31.3 0.00 0.02 0.00 79 1010.3
20260905180515 61 276 19.1 24.3 0.00 0.07 0.00 77 1009.6
20260905175515 61 326 15.6 28.7 0.00 0.09 0.00 76 1009.5
20260905172515 61 289 14.8 25.2 0.00 0.09 0.00 74 1009.2
20260905171515 62 275 18.2 24.3 0.00 0.09 0.00 72 1009.1